User: anonymous   Login
Location: Ostrava
(49.8330°N, 18.2830°E)
Time: 23:26:11
(UTC+02:00)
Language:

Vanguard 2 Rocket - Orbit

View from above orbital plane
View from above orbital plane
View from above satellite
View from above satellite

Ground track
Ground track

The orbit data is extracted from the following two-line orbital elements,

1 00012U 59001B   17264.04895631 -.00000043  00000-0 -45936-4 0  9994
2 00012  32.9051 250.7257 1667440 216.8680 130.4993 11.44138596407936
Epoch (UTC): 21 September 2017 01:10:29
Eccentricity: 0.1667440
inclination: 32.9051°
perigee height: 554 km
apogee height: 3328 km
right ascension of ascending node: 250.7257°
argument of perigee: 216.8680°
revolutions per day: 11.44138596
mean anomaly at epoch: 130.4993°
orbit number at epoch: 40793

The dashed part of the orbit path shows where the satellite is in the earth's shadow,  

DLR